Weather Roundup
Issued by NWS Chicago, IL

Home | Current Version | Previous Version | Graphics & Text | Print | Product List | Glossary On
Versions: 1 2 3 4 5 6 7 8 9 10 11 12 13 14 15 16 17 18 19 20 21 22 23 24 25 26 27 28 29 30 31 32 33 34 35 36 37 38 39 40 41 42 43 44 45 46 47 48 49 50
575
NZUS59 KLOT 290808
HRRLOT

CHICAGO AREA WEATHER ROUNDUP
NATIONAL WEATHER SERVICE CHICAGO/ROMEOVILLE IL
300 AM CDT SUN MAY 29 2016

NOTE: "FAIR" INDICATES FEW OR NO CLOUDS BELOW 12,000 FEET WITH NO
SIGNIFICANT WEATHER AND/OR OBSTRUCTIONS TO VISIBILITY.

* THESE STATIONS ARE NOT UNDER NWS QUALITY CONTROL. THEY ALSO MAY NOT
  REPORT WEATHER SUCH AS PRECIPITATION OR FOG.

ILZ005-006-012>014-019>023-290900-
NORTHEAST ILLINOIS

CITY           SKY/WX    TMP DP  RH WIND       PRES   REMARKS
OHARE          CLOUDY    65  61  87 SW7       29.94S
MIDWAY         MOCLDY    68  57  68 SW8       29.95S
AURORA         MOCLDY    64  61  90 SW9       29.96S
LANSING*       PTCLDY    66  56  70 S7        29.98R
JOLIET*        CLOUDY    65  61  87 S3        29.97S
WAUKEGAN       PTCLDY    64  62  93 SW8       29.92S
DUPAGE AIRPORT MOCLDY    64  60  87 SW9       29.95S
WHEELING       MOCLDY    65  61  87 S6        29.95S
KANKAKEE*      CLOUDY    64  58  80 SW9       29.99F
MORRIS*        MOCLDY    64  61  91 SW5       29.96S
LEWIS AIRPORT* CLOUDY    64  58  80 SW8       29.97R
$$

WIZ051-052-058>065-066-070>072-290900-
SOUTHEAST WISCONSIN

CITY           SKY/WX    TMP DP  RH WIND       PRES   REMARKS
MILWAUKEE      CLOUDY    66  63  90 SW10      29.91S
KENOSHA*       PTCLDY    64  61  90 S7        29.93R
RACINE*        MOCLDY    65  61  87 SW7       29.94R
BURLINGTON     MOCLDY    63  62  98 SW5       29.92S
WAUKESHA       CLOUDY    63  61  94 S5        29.92S
WEST BEND      MOCLDY    63  61  94 S5        29.89S
$$

INZ001>003-010>013-019-020-290900-
NORTHWEST INDIANA

CITY           SKY/WX    TMP DP  RH WIND       PRES   REMARKS
GARY*          CLOUDY    69  62  79 S3        29.98S
MICHIGAN CITY* NOT AVBL
RENSSELAER*    NOT AVBL
VALPARAISO     CLOUDY    66  55  67 SW8       29.99S
$$

LMZ740>746-290900-
SOUTHERN LAKE MICHIGAN

STATION/POSITION TIME  SKY/WX   TEMP WIND        PRES    VSBY
                                AIR  DIR/SP/G
                 (UTC)          (F)  (DEG/KT/KT) (MB)    (MI)
HARRISON CRIB    0700            70  210/ 11/ 13   N/A
BURNHAM HARBOR   0800            68  240/  7/  9   N/A
CALUMET HARBOR   0700            67  200/  6/  9 1013.7F
BURNS HARBOR     0700            70  170/  5/ 10 1014.9F
MICHIGAN CITY    0700            71  190/ 10/ 11   N/A
$$

ABBREVIATIONS USED IN REMARKS
   TC - TEMPERATURE IN CELSIUS
  WCI - WIND CHILL INDEX
   HX - HEAT INDEX
  VSB - VISIBILITY
$$




USA.gov is the U.S. government's official web portal to all federal, state and local government web resources and services.